Date,TemperatureHighF,TemperatureAvgF,TemperatureLowF,DewpointHighF,DewpointAvgF,DewpointLowF,HumidityHigh,HumidityAvg,HumidityLow,PressureMaxIn,PressureMinIn,WindSpeedMaxMPH,WindSpeedAvgMPH,GustSpeedMaxMPH,PrecipitationSumIn
2013-1-4,25,23,23,0,0,0,0,0,100,30.06,30.02,13,8,13,0.00
2013-1-10,61,41,34,24,18,14,50,40,24,30.41,30.26,18,2,18,0.00
2013-1-11,46,38,33,37,24,16,70,60,45,30.27,29.94,24,4,24,0.33
2013-1-12,65,52,45,47,42,36,72,68,52,30.04,29.96,15,3,15,0.00
2013-1-13,52,52,52,41,41,41,66,66,66,29.97,29.97,0,0,3,0.00
2013-1-17,26,26,26,17,17,17,68,68,68,29.99,29.99,4,4,11,0.00
2013-1-18,48,26,11,17,7,-2,69,46,22,30.32,29.99,7,2,7,0.00
2013-1-19,63,42,25,18,10,2,39,28,17,30.16,29.77,18,8,18,0.00
2013-1-20,45,34,15,21,11,2,56,41,25,29.98,29.67,19,8,19,0.00
2013-1-21,22,15,4,10,4,-8,64,60,54,29.96,29.77,25,7,25,0.00
2013-1-22,18,5,0,-4,-9,-12,61,54,35,30.04,29.86,24,9,24,0.00
2013-1-26,19,18,18,9,8,8,65,65,65,30.25,30.19,0,0,0,0.00
2013-1-27,56,29,15,21,10,5,66,49,22,30.38,30.25,0,0,0,0.00
2013-1-28,46,43,25,37,34,13,72,71,60,30.22,29.90,28,9,28,0.00
2013-1-29,63,51,46,49,41,37,73,69,58,30.00,29.82,16,4,16,0.00
2013-1-30,64,53,47,47,42,38,72,66,53,29.82,29.23,30,5,30,0.00
2013-1-31,47,38,30,38,29,21,71,70,67,29.31,29.17,30,12,30,0.00
2013-2-9,36,18,14,8,4,2,59,54,31,30.26,30.20,8,0,8,0.00
2013-2-10,69,33,13,25,11,2,62,43,18,30.25,29.95,21,3,21,0.00
2013-2-11,70,43,32,39,27,13,70,56,24,29.96,29.61,28,6,34,0.00
2013-4-13,60,47,38,28,25,22,52,42,30,29.91,29.83,7,4,7,0.00
2013-4-14,75,48,29,33,24,16,62,41,22,30.09,29.92,11,2,11,0.00
2013-4-15,73,58,49,42,38,26,60,47,32,30.11,29.99,17,4,17,0.00
2013-4-16,84,65,51,52,44,39,62,49,33,30.10,30.05,17,5,17,0.00
2013-4-26,65,55,41,31,22,16,38,29,23,30.39,29.59,15,3,15,0.00
2013-4-27,77,55,39,35,25,14,42,32,20,30.37,30.20,17,1,17,0.00
2013-4-28,57,49,45,38,34,28,68,57,42,30.20,30.02,32,3,32,0.00
2013-4-29,63,52,45,46,40,35,70,64,51,30.06,29.99,16,2,16,0.00
2013-4-30,63,54,49,45,42,40,70,63,50,30.22,30.05,20,3,20,0.00
2013-5-1,79,59,46,41,34,24,68,43,20,30.35,30.21,14,3,14,0.00
2013-5-2,78,58,43,36,31,26,62,38,18,30.38,30.25,17,3,17,0.00
2013-5-3,74,58,47,39,33,27,54,41,27,30.30,30.21,17,3,17,0.00
2013-5-4,72,55,41,39,33,28,60,46,28,30.24,30.12,19,3,19,0.00
2013-5-5,75,55,42,32,28,22,62,39,16,30.17,30.07,20,3,20,0.00
2013-5-6,69,54,40,44,37,28,66,53,40,30.12,30.06,15,3,15,0.00
2013-5-7,67,57,52,46,44,42,69,61,44,30.07,29.99,14,4,14,0.00
2013-5-8,76,58,50,50,44,38,72,60,37,30.01,29.91,14,1,14,0.00
2013-5-9,71,57,50,50,44,40,72,62,41,30.03,29.90,17,3,17,0.00
2013-5-10,75,60,53,53,46,40,70,61,46,30.03,29.85,22,2,22,0.00
2013-5-11,57,53,48,48,44,38,72,71,67,29.85,29.79,17,5,17,0.00
2013-5-12,50,42,34,38,26,19,71,53,34,29.99,29.78,31,8,31,0.00
2013-5-13,49,38,31,24,20,16,68,50,34,30.14,29.98,20,4,22,0.00
2013-5-14,56,41,28,30,23,15,61,49,33,30.16,29.96,14,2,14,0.00
2013-5-15,83,63,46,54,43,28,66,48,34,29.96,29.75,27,5,27,0.00
2013-5-16,80,66,56,51,44,34,70,48,24,30.00,29.80,21,4,21,0.00
2013-5-17,81,65,54,49,45,36,70,50,29,30.14,30.00,9,1,9,0.00
2013-5-18,80,63,52,53,44,33,67,50,39,30.18,30.11,8,2,8,0.00
2013-5-19,74,60,54,54,48,45,70,65,50,30.16,30.07,10,2,10,0.00
2013-5-20,60,60,59,51,50,49,71,70,70,30.09,30.04,8,1,8,0.00
2013-5-22,86,72,63,56,52,49,64,52,34,29.95,29.85,7,2,7,0.00
2013-5-23,75,63,56,54,50,46,70,63,41,29.88,29.80,7,2,7,0.00
2013-5-24,55,41,36,46,30,24,71,65,55,30.18,29.83,17,4,17,0.00
2013-5-25,60,44,34,31,27,24,69,52,30,30.21,30.14,7,3,7,0.00
2013-5-26,67,48,34,32,27,22,64,46,27,30.22,30.16,4,0,4,0.00
2013-5-27,64,52,41,38,31,24,59,45,29,30.26,30.14,0,0,0,0.00
2013-5-28,74,65,49,56,51,38,71,60,53,30.14,30.04,8,0,8,0.00
2013-5-29,78,68,64,55,51,49,59,54,45,30.12,30.05,10,3,10,0.00
2013-5-30,86,74,65,57,53,49,58,49,36,30.23,30.14,3,0,3,0.00
2013-5-31,85,77,64,56,54,51,63,46,37,30.17,30.13,8,2,8,0.00
2013-6-1,88,74,62,57,54,51,67,51,35,30.08,29.92,8,2,8,0.00
2013-6-2,77,70,65,56,53,50,67,55,41,29.91,29.86,10,2,10,0.00
2013-6-3,67,61,49,52,46,33,68,58,45,30.03,29.90,1,0,1,0.00
2013-6-4,75,55,40,42,36,29,66,49,30,30.15,30.05,4,0,4,0.00
2013-6-5,82,63,50,51,44,32,57,50,34,30.17,30.01,9,1,9,0.00
2013-6-6,62,59,56,50,47,41,71,65,58,30.02,29.85,12,2,12,0.00
2013-6-8,70,62,54,49,47,44,71,58,46,30.13,30.02,8,1,8,0.00
2013-6-9,83,66,52,56,52,43,70,60,40,30.20,30.09,7,1,7,0.00
2013-6-10,76,66,61,60,55,50,72,67,55,30.10,29.83,11,2,11,0.00
2013-6-11,73,64,60,57,52,50,73,67,52,29.93,29.81,19,4,19,0.00
2013-6-12,80,68,60,59,54,50,72,62,44,29.95,29.83,10,1,10,0.00
2013-6-13,69,63,55,58,52,44,72,67,62,29.84,29.58,28,6,28,0.00
2013-6-14,72,60,50,50,45,41,70,60,43,30.05,29.77,15,3,15,0.00
2013-6-15,78,62,52,48,42,35,72,50,26,30.13,30.02,16,2,16,0.00
2013-6-16,71,64,57,58,50,38,70,62,42,30.07,29.91,27,5,27,0.00
2013-6-17,84,68,63,56,53,48,71,60,31,30.01,29.95,14,3,14,0.00
2013-6-18,78,67,60,59,53,50,70,60,46,29.98,29.88,18,0,18,0.00
2013-6-19,82,63,49,50,43,38,70,51,27,30.17,29.97,12,1,12,0.00
2013-6-20,86,68,55,53,47,40,66,50,31,30.25,30.17,11,1,11,0.00
2013-6-21,70,61,58,56,51,49,71,69,58,30.28,30.23,1,0,1,0.00
2013-10-7,66,55,44,52,42,32,71,62,47,30.09,29.76,18,3,18,0.00
2013-10-8,72,52,40,43,36,31,72,57,33,30.29,30.09,5,0,5,0.00
2013-10-9,65,51,42,38,33,29,66,52,35,30.32,30.25,4,0,4,0.00
2013-10-10,62,50,43,38,34,31,70,56,38,30.24,30.11,6,0,6,0.00
2013-10-11,58,51,48,48,42,39,72,70,66,30.09,30.05,4,0,4,0.00
2013-10-12,76,61,53,53,47,41,71,60,42,30.20,30.06,4,0,4,0.00
2013-10-13,63,55,53,52,48,41,94,77,57,30.28,30.18,7,1,7,0.00
2013-10-14,64,56,51,59,53,50,94,92,83,30.29,30.22,8,0,8,0.00
2013-10-15,73,58,50,62,54,49,96,87,69,30.24,30.03,9,0,9,0.00
2013-10-16,64,57,52,60,53,48,93,86,78,30.04,29.90,15,0,15,0.00
2013-10-17,60,53,46,57,51,44,95,92,83,29.93,29.65,21,2,21,0.00
2013-10-18,61,48,42,48,42,37,95,83,62,29.99,29.85,21,5,21,0.00
2013-10-19,52,45,38,46,42,36,92,87,79,29.99,29.76,16,4,22,0.00
2013-10-20,57,46,35,45,39,33,94,77,62,30.04,29.89,11,4,11,0.00
2013-10-21,70,51,39,50,40,33,82,67,50,30.06,29.88,8,1,10,0.00
2013-10-22,55,45,36,43,37,29,92,73,58,29.91,29.81,16,2,16,0.00
2013-10-23,37,35,32,35,32,29,94,87,74,29.87,29.71,10,1,10,0.00
2013-10-24,44,34,29,34,30,26,94,85,66,30.07,29.86,17,4,17,0.00
2013-10-25,44,33,28,38,30,26,94,88,71,30.24,30.07,13,4,13,0.00
2013-10-26,52,37,27,36,29,25,90,74,54,30.20,29.88,21,5,21,0.00
2013-10-27,50,38,32,38,32,28,92,79,62,30.09,29.91,19,3,19,0.00
2013-10-28,64,45,32,46,35,28,84,71,51,30.25,30.07,8,0,8,0.00
2013-10-29,64,46,34,47,38,31,90,74,54,30.33,30.24,7,0,7,0.00
2013-10-30,72,53,41,57,46,35,89,76,59,30.24,30.11,7,0,7,0.00
2013-10-31,62,56,53,57,54,50,94,91,84,30.12,29.60,12,1,12,0.00
2013-11-1,64,55,46,56,49,40,94,80,60,29.73,29.43,33,7,33,0.00
2013-11-2,53,45,40,44,41,38,94,84,72,29.88,29.67,20,5,20,0.00
2013-11-3,51,37,27,39,32,22,94,82,61,30.39,29.88,15,3,15,0.00
2013-11-4,43,31,22,30,23,18,83,71,58,30.51,30.39,17,3,17,0.00
2013-11-5,53,39,31,38,29,23,86,67,52,30.48,30.33,16,2,16,0.00
2013-11-6,73,53,37,57,46,34,93,78,57,30.33,29.93,13,2,13,0.00
2013-11-7,58,43,31,52,39,26,94,87,74,30.05,29.85,24,5,24,0.00
2013-11-8,38,33,26,31,27,22,89,81,71,30.23,30.01,24,4,24,0.00
2013-11-9,53,40,25,38,29,22,88,68,50,30.23,29.92,31,4,31,0.00
2013-11-10,47,40,33,36,32,28,82,75,57,30.19,29.90,25,8,25,0.00
2013-11-11,49,37,29,37,30,26,90,76,59,30.20,29.98,18,6,22,0.00
2013-11-12,35,26,19,32,22,16,92,84,68,30.34,30.00,20,2,20,0.00
2013-11-13,37,26,20,27,21,17,90,80,65,30.40,30.26,18,6,18,0.00
2013-11-14,49,34,24,31,23,19,80,65,50,30.26,30.15,20,8,20,0.00
2013-11-15,56,44,37,37,29,24,75,56,46,30.19,30.10,18,5,18,0.00
2013-11-16,64,48,37,51,42,34,93,81,62,30.23,30.08,12,1,12,0.00
2013-11-17,54,50,45,53,49,43,95,94,90,30.09,29.59,32,2,32,0.00
2013-11-18,53,44,34,47,36,27,93,74,58,29.95,29.64,27,9,27,0.00
2013-11-19,34,30,22,28,24,18,86,80,75,30.33,29.95,24,5,24,0.00
2013-11-20,47,31,21,30,21,17,87,69,50,30.43,30.32,19,4,19,0.00
2013-11-21,48,36,27,39,30,18,90,80,65,30.41,30.23,15,2,15,0.00
2013-11-22,49,45,33,48,43,31,96,93,85,30.23,30.01,24,6,24,0.00
2013-11-23,36,26,14,31,22,9,92,84,66,30.17,30.00,29,8,29,0.00
2013-11-24,21,14,10,17,10,6,88,83,76,30.37,30.16,19,7,23,0.00
2013-11-25,36,22,9,23,14,5,86,72,55,30.38,30.15,23,4,23,0.00
2013-11-26,33,30,27,30,28,23,94,91,78,30.17,29.66,15,1,15,0.00
2013-11-27,31,25,17,30,23,15,95,92,89,29.97,29.60,0,0,0,0.00
2013-11-28,26,19,13,21,16,10,91,87,78,30.33,29.97,0,0,0,0.00
2013-11-29,32,22,16,28,19,13,92,89,82,30.56,30.32,0,0,0,0.00
2013-11-30,30,22,16,26,20,14,92,90,84,30.55,30.20,0,0,0,0.00
2013-12-1,48,33,24,40,29,22,90,84,72,30.20,29.94,10,1,10,0.00
2013-12-2,50,38,32,40,33,28,87,82,70,29.94,29.80,9,1,9,0.00
2013-12-3,55,40,35,46,36,32,93,86,70,29.92,29.82,9,0,9,0.00
2013-12-4,58,44,36,49,40,34,92,85,73,30.01,29.91,14,1,14,0.00
2013-12-5,60,51,40,56,49,38,95,92,82,29.97,29.88,10,2,17,0.00
2013-12-6,40,32,27,38,30,25,95,94,93,30.17,29.95,14,1,14,0.00
2013-12-7,31,22,12,26,20,10,94,91,82,30.46,30.14,0,0,0,0.00
2013-12-8,24,17,10,22,15,8,93,90,87,30.46,30.08,18,2,25,0.00
2013-12-9,35,30,24,33,28,22,95,93,89,30.08,29.95,26,5,26,0.00
2013-12-10,26,22,17,23,18,11,92,84,73,30.11,29.92,33,7,33,0.00
2013-12-11,26,19,13,17,13,10,89,79,67,30.24,30.11,27,8,27,0.00
2013-12-12,19,14,9,14,8,4,88,77,64,30.32,30.12,24,7,24,0.00
2013-12-13,33,21,13,22,14,6,81,74,64,30.20,30.10,21,5,21,0.00
2013-12-14,30,28,24,29,24,18,94,85,73,30.20,29.67,24,3,24,0.00
2013-12-15,33,26,15,32,23,10,95,92,81,29.90,29.58,30,8,30,0.00
2013-12-16,27,16,11,20,12,7,90,83,68,30.07,29.90,29,3,29,0.00
2013-12-17,30,26,22,28,24,19,94,92,90,29.99,29.87,10,0,10,0.00
2013-12-18,25,22,18,22,19,16,92,89,85,30.11,29.93,22,7,22,0.00
2013-12-19,49,38,24,37,29,19,85,71,64,30.05,29.99,24,7,24,0.00
2013-12-20,50,46,41,47,38,31,94,76,62,30.02,29.89,20,4,20,0.00
2013-12-21,56,53,50,54,51,47,95,93,89,29.91,29.76,24,3,24,0.00
2013-12-22,61,56,52,56,53,48,94,89,82,29.95,29.66,30,7,30,0.00
2013-12-23,52,36,26,48,34,21,95,91,83,30.18,29.92,20,2,20,0.00
2013-12-24,26,19,6,22,15,3,90,83,74,30.37,30.12,28,4,28,0.00
2013-12-25,28,16,6,20,11,3,89,81,70,30.39,30.16,10,1,10,0.00
2013-12-26,31,24,18,25,20,14,91,83,72,30.25,30.07,24,5,24,0.00
2013-12-27,40,28,18,29,22,14,85,76,66,30.28,30.20,18,5,18,0.00
2013-12-28,51,39,32,36,29,23,73,66,58,30.20,30.04,21,6,21,0.00
2013-12-29,42,38,34,36,33,28,95,84,58,30.04,29.62,21,2,21,0.00
2013-12-30,35,23,16,34,20,12,95,89,80,30.09,29.76,21,4,21,0.00
2013-12-31,21,18,15,18,15,11,92,89,84,30.19,29.98,29,6,29,0.00
2014-1-1,41,25,16,31,21,14,92,85,67,30.24,30.01,11,2,11,0.00
2014-1-2,25,21,9,22,19,6,91,89,87,30.01,29.63,15,3,15,0.00